Date String (YYYY-MM-DD hh:mm:ss) UTC,Instrument flags,Ambient pressure (hPa),Sample flow (lpm),Bypass flow (lpm),Sample temperature (°C),Ambient temperature (°C),ASC tube jacket temperature (°C),LED temperature (°C),Box temperature (°C),Sample RH (%),Span deviation,Mass concentration (μg/m³),Mass concentration (μg/m³),Mass concentration (μg/m³)
DateTimeUTC,F1_M11,P_M11,Q1_M11,Q2_M11,T1_M11,T2_M11,T3_M11,T4_M11,T5_M11,U1_M11,ZSPAN_M11,X0_M11,X2_M11,X1_M11
2023-02-28 09:00:00,,0812.7,5.03,0.00,22.1,20.1,00.0,31.0,23.6,08.3,0000.0,0001.81,0000.91,0000.56
2023-02-28 09:01:00,,0812.7,5.03,0.00,22.1,20.6,00.0,30.9,23.7,08.3,0000.0,0001.72,0000.90,0000.56
2023-02-28 09:02:00,,0812.7,5.02,0.00,22.2,21.8,00.0,30.9,24.0,08.3,0000.0,0001.71,0000.89,0000.55
2023-02-28 09:03:00,,0812.6,4.98,0.00,22.3,22.9,00.0,30.9,24.3,08.3,0000.0,0001.72,0000.90,0000.56
2023-02-28 09:04:00,,0812.6,5.01,0.00,22.4,22.8,00.0,31.0,24.4,08.3,0000.0,0001.73,0000.91,0000.56
2023-02-28 09:05:00,,0812.6,5.01,0.00,22.4,22.2,00.0,31.0,24.3,08.3,0000.0,0001.89,0000.95,0000.56
2023-02-28 09:06:00,,0812.5,5.00,0.00,22.4,21.7,00.0,31.0,24.2,08.3,0000.0,0002.11,0000.96,0000.56
2023-02-28 09:07:00,,0812.5,5.02,0.00,22.4,21.3,00.0,31.0,24.0,08.3,0000.0,0002.16,0000.96,0000.56
2023-02-28 09:08:00,,0812.5,4.99,0.00,22.3,21.1,00.0,31.0,24.0,08.3,0000.0,0002.15,0000.96,0000.56
2023-02-28 09:09:00,,0812.5,4.99,0.00,22.3,20.9,00.0,31.0,23.9,08.4,0000.0,0002.14,0000.94,0000.56
2023-02-28 09:10:00,,0812.5,4.99,0.00,22.3,20.6,00.0,31.0,23.8,08.3,0000.0,0002.22,0000.96,0000.56
2023-02-28 09:11:00,,0812.5,5.00,0.00,22.2,20.4,00.0,31.0,23.8,08.4,0000.0,0002.25,0000.99,0000.56
2023-02-28 09:12:00,,0812.5,5.01,0.00,22.2,20.3,00.0,31.0,23.7,08.4,0000.0,0002.22,0000.99,0000.57
2023-02-28 09:13:00,,0812.5,4.98,0.00,22.1,20.2,00.0,31.0,23.6,08.3,0000.0,0002.15,0000.99,0000.58
2023-02-28 09:14:00,,0812.4,4.97,0.00,22.1,20.1,00.0,31.0,23.6,08.3,0000.0,0002.16,0001.00,0000.58
2023-02-28 09:15:00,,0812.4,5.01,0.00,22.0,20.2,00.0,30.9,23.6,08.3,0000.0,0002.14,0000.97,0000.58
2023-02-28 09:16:00,,0812.4,5.02,0.00,22.1,21.4,00.0,30.9,23.9,08.4,0000.0,0002.09,0000.95,0000.57
2023-02-28 09:17:00,,0812.4,4.99,0.00,22.2,22.6,00.0,30.9,24.2,08.3,0000.0,0001.83,0000.94,0000.57
2023-02-28 09:18:00,,0812.4,4.97,0.00,22.4,23.1,00.0,30.9,24.4,08.2,0000.0,0001.75,0000.92,0000.56
2023-02-28 09:19:00,,0812.3,5.01,0.00,22.4,22.5,00.0,31.0,24.3,08.2,0000.0,0001.72,0000.92,0000.56
2023-02-28 09:20:00,,0812.3,4.99,0.00,22.4,22.0,00.0,31.0,24.2,08.1,0000.0,0001.68,0000.90,0000.56
2023-02-28 09:21:00,,0812.3,5.01,0.00,22.4,21.5,00.0,31.0,24.1,08.2,0000.0,0001.66,0000.91,0000.56
2023-02-28 09:22:00,,0812.3,4.99,0.00,22.3,21.2,00.0,31.0,24.0,08.2,0000.0,0001.58,0000.92,0000.56
2023-02-28 09:23:00,,0812.2,5.01,0.00,22.3,20.9,00.0,31.0,23.9,08.2,0000.0,0001.54,0000.90,0000.54
2023-02-28 09:24:00,,0812.1,5.00,0.00,22.3,20.7,00.0,31.0,23.8,08.2,0000.0,0001.42,0000.85,0000.53
2023-02-28 09:25:00,,0812.1,5.01,0.00,22.2,20.5,00.0,31.0,23.8,08.3,0000.0,0001.50,0000.89,0000.53
2023-02-28 09:26:00,,0812.1,5.00,0.00,22.2,20.4,00.0,31.0,23.7,08.3,0000.0,0001.53,0000.90,0000.53
2023-02-28 09:27:00,,0812.1,4.99,0.00,22.1,20.3,00.0,31.0,23.6,08.4,0000.0,0001.52,0000.90,0000.54
2023-02-28 09:28:00,,0812.1,5.00,0.00,22.1,20.1,00.0,31.0,23.6,08.4,0000.0,0001.49,0000.89,0000.53
2023-02-28 09:29:00,,0812.1,4.99,0.00,22.1,20.3,00.0,30.9,23.6,08.4,0000.0,0001.53,0000.91,0000.54
2023-02-28 09:30:00,,0812.0,4.98,0.00,22.1,21.5,00.0,30.9,23.9,08.3,0000.0,0001.51,0000.90,0000.53
2023-02-28 09:31:00,,0812.1,4.99,0.00,22.3,22.6,00.0,30.9,24.2,08.3,0000.0,0001.59,0000.89,0000.53
2023-02-28 09:32:00,,0812.0,5.01,0.00,22.4,22.9,00.0,31.0,24.3,08.3,0000.0,0001.60,0000.87,0000.52
2023-02-28 09:33:00,,0812.0,5.00,0.00,22.4,22.3,00.0,31.0,24.2,08.2,0000.0,0001.41,0000.77,0000.51
2023-02-28 09:34:00,,0812.1,4.98,0.00,22.4,21.8,00.0,31.0,24.1,08.2,0000.0,0001.45,0000.78,0000.52
2023-02-28 09:35:00,,0812.0,5.01,0.00,22.3,21.4,00.0,31.0,24.0,08.2,0000.0,0001.64,0000.83,0000.53
2023-02-28 09:36:00,,0812.0,4.99,0.00,22.3,21.1,00.0,31.0,24.0,08.2,0000.0,0001.69,0000.84,0000.54
2023-02-28 09:37:00,,0811.9,4.99,0.00,22.3,20.9,00.0,31.0,23.9,08.3,0000.0,0001.73,0000.86,0000.55
2023-02-28 09:38:00,,0811.8,5.01,0.00,22.2,20.7,00.0,31.0,23.9,08.2,0000.0,0001.85,0000.88,0000.53
2023-02-28 09:39:00,,0811.9,4.99,0.00,22.2,20.5,00.0,31.0,23.8,08.3,0000.0,0001.93,0000.90,0000.53
2023-02-28 09:40:00,,0811.9,5.00,0.00,22.2,20.4,00.0,31.0,23.8,08.3,0000.0,0001.94,0000.90,0000.52
2023-02-28 09:41:00,,0811.9,5.00,0.00,22.1,20.3,00.0,31.0,23.7,08.3,0000.0,0002.06,0000.93,0000.52
2023-02-28 09:42:00,,0811.9,5.03,0.00,22.1,20.2,00.0,31.0,23.6,08.3,0000.0,0002.03,0000.95,0000.52
2023-02-28 09:43:00,,0811.9,5.00,0.00,22.0,20.1,00.0,30.9,23.6,08.3,0000.0,0002.05,0000.97,0000.53
2023-02-28 09:44:00,,0811.8,5.02,0.00,22.1,21.1,00.0,30.9,23.8,08.3,0000.0,0002.23,0001.01,0000.53
2023-02-28 09:45:00,,0811.8,5.00,0.00,22.2,22.3,00.0,30.9,24.1,08.2,0000.0,0002.16,0000.99,0000.52
2023-02-28 09:46:00,,0811.8,4.99,0.00,22.3,23.0,00.0,30.9,24.3,08.2,0000.0,0002.10,0000.97,0000.51
2023-02-28 09:47:00,,0811.8,4.98,0.00,22.4,22.5,00.0,31.0,24.3,08.1,0000.0,0002.00,0000.94,0000.49
2023-02-28 09:48:00,,0811.7,5.00,0.00,22.4,22.0,00.0,31.0,24.2,08.1,0000.0,0001.92,0000.89,0000.47
2023-02-28 09:49:00,,0811.7,5.02,0.00,22.3,21.6,00.0,31.0,24.1,08.1,0000.0,0001.90,0000.90,0000.47
2023-02-28 09:50:00,,0811.7,5.01,0.00,22.3,21.2,00.0,31.0,24.0,08.2,0000.0,0001.87,0000.89,0000.48
2023-02-28 09:51:00,,0811.7,5.00,0.00,22.3,21.0,00.0,31.0,23.9,08.2,0000.0,0001.83,0000.88,0000.48
2023-02-28 09:52:00,,0811.7,5.00,0.00,22.3,20.8,00.0,31.0,23.9,08.3,0000.0,0001.72,0000.85,0000.48
2023-02-28 09:53:00,,0811.7,5.01,0.00,22.2,20.7,00.0,31.0,23.9,08.3,0000.0,0001.69,0000.85,0000.48
2023-02-28 09:54:00,,0811.6,5.00,0.00,22.2,20.5,00.0,31.0,23.8,08.2,0000.0,0001.74,0000.88,0000.48
2023-02-28 09:55:00,,0811.6,5.00,0.00,22.2,20.4,00.0,31.0,23.8,08.2,0000.0,0001.67,0000.84,0000.46
2023-02-28 09:56:00,,0811.6,5.00,0.00,22.1,20.3,00.0,31.0,23.7,08.2,0000.0,0001.70,0000.83,0000.46
2023-02-28 09:57:00,,0811.6,5.00,0.00,22.1,20.3,00.0,31.0,23.7,08.2,0000.0,0001.57,0000.79,0000.46
2023-02-28 09:58:00,,0811.6,5.00,0.00,22.1,20.3,00.0,30.9,23.6,08.2,0000.0,0001.53,0000.79,0000.45
2023-02-28 09:59:00,,0811.6,5.02,0.00,22.1,21.2,00.0,30.9,23.9,08.2,0000.0,0001.50,0000.79,0000.46
